SCP
0 0 0 0 0 0 0 0 0 0 0 2 4 5 4 2 2 1 1 1 2 3 4 3 3 2 2 2 2 1 1 0 0 0 0 0 0 0 0 0 0 0 0 0
0 0 0 0 0 0 0 0 0 0 1 2 5 6 4 3 2 2 1 1 1 2 3 3 3 3 2 2 2 1 0 0 0 0 0 0 0 0 0 0 0 0 0 0
0 0 0 0 0 0 0 1 0 0 1 2 5 6 5 3 3 2 1 1 1 1 2 2 2 2 2 2 1 1 0 0 0 0 0 0 0 0 0 0 0 0 0 0
0 0 0 0 0 0 0 0 0 0 1 3 4 5 4 3 3 2 1 1 1 1 1 1 2 2 2 1 1 1 0 0 0 0 0 0 0 0 0 0 0 0 0 0
0 0 0 0 0 0 0 0 1 1 1 3 4 4 3 2 2 2 1 1 0 0 0 1 1 1 1 1 1 0 0 0 0 0 0 0 0 0 0 0 0 0 0 0
0 0 0 0 0 0 0 1 1 1 2 3 3 3 2 1 1 1 1 0 0 0 0 0 0 0 0 0 0 0 0 0 0 0 0 0 0 0 0 0 0 0 0 0
0 0 0 0 0 0 0 0 1 1 1 1 1 1 1 1 1 0 0 0 0 0 0 0 0 0 0 0 0 0 0 0 0 0 0 0 0 0 0 0 0 0 0 0
0 0 0 0 0 0 0 0 1 1 1 1 0 0 1 0 0 0 0 0 0 0 0 0 0 0 0 0 0 0 0 0 0 0 0 0 0 0 0 0 0 0 0 0
0 0 0 0 0 0 0 1 1 1 1 1 1 0 0 0 0 0 0 0 0 0 0 0 0 0 0 0 0 0 0 0 0 0 0 0 0 0 0 0 0 0 0 0
0 0 0 0 0 0 0 0 1 1 1 1 1 1 0 0 0 0 0 0 0 0 0 0 0 0 0 0 0 0 0 0 0 0 0 0 0 0 0 0 0 0 0 0
0 0 0 0 0 0 1 1 1 1 1 1 1 0 0 0 0 0 0 0 0 0 0 0 0 0 0 0 0 0 0 0 0 0 0 0 0 0 0 0 0 0 0 0
0 0 0 0 0 0 1 1 1 0 0 0 0 0 0 0 0 0 0 0 0 0 0 0 0 0 0 0 0 0 0 0 0 0 0 0 0 0 0 0 0 0 0 0
0 0 0 0 0 0 1 1 1 0 0 0 0 0 0 0 0 0 0 0 0 0 0 0 0 0 0 0 0 0 0 0 0 0 0 0 0 0 0 0 0 0 0 0
0 0 0 0 0 1 1 1 0 0 0 0 0 0 0 0 0 0 0 0 0 0 0 0 0 0 0 0 0 0 0 0 0 0 0 0 0 0 0 0 0 0 0 0
0 0 0 0 0 1 1 1 0 0 0 0 0 0 0 0 0 0 0 0 0 0 0 0 0 0 0 0 0 0 0 0 0 0 0 0 0 0 0 0 0 0 0 0
0 0 0 0 0 1 1 0 0 0 0 0 0 0 0 0 0 0 0 0 0 0 0 0 0 0 0 0 0 0 0 0 0 0 0 0 0 0 0 0 0 0 0 0
0 0 0 0 0 0 0 0 0 0 0 0 0 0 0 0 0 0 0 0 0 0 0 0 0 0 0 0 0 0 0 0 0 0 0 0 0 0 0 0 0 0 0 0
0 0 0 0 0 0 0 0 0 0 0 0 0 0 0 0 0 0 0 0 0 0 0 0 0 0 0 0 0 0 0 0 0 0 0 0 0 0 0 0 0 0 0 0
0 0 0 0 0 0 0 0 0 0 0 0 0 0 0 0 0 0 0 0 0 0 0 0 0 0 0 0 0 0 0 0 0 0 0 0 0 0 0 0 0 0 0 0
0 0 0 0 0 0 0 0 0 0 0 0 0 0 0 0 0 0 0 0 0 0 0 0 0 0 0 0 0 0 0 0 0 0 0 0 0 0 0 0 0 0 0 0
0 0 0 0 0 0 0 0 0 0 0 0 0 0 0 0 0 0 0 0 0 0 0 0 0 0 0 0 0 0 0 0 0 0 0 0 0 0 0 0 0 0 0 0
0 0 0 0 0 0 0 0 0 0 0 0 0 0 0 0 0 0 0 0 0 0 0 0 0 0 0 0 0 0 0 0 0 0 0 0 0 0 0 0 0 0 0 0
0 0 0 0 0 0 0 0 0 0 0 0 0 0 0 0 0 0 0 0 0 0 0 0 0 0 0 0 0 0 0 0 0 0 0 0 0 0 0 0 0 0 0 0
0 0 0 0 0 0 0 0 0 0 0 0 0 0 0 0 0 0 0 0 0 0 0 0 0 0 0 0 0 0 0 0 0 0 0 0 0 0 0 0 0 0 0 0
0 0 0 0 0 0 0 0 0 0 0 0 0 0 0 0 0 0 0 0 0 0 0 0 0 0 0 0 0 0 0 0 0 0 0 0 0 0 0 0 0 0 0 0
0 0 0 0 0 0 0 0 0 0 0 0 0 0 0 0 0 0 0 0 0 0 0 0 0 0 0 0 0 0 0 0 0 0 0 0 0 0 0 0 0 0 0 0
0 0 0 0 0 0 0 0 0 0 0 0 0 0 0 0 0 0 0 0 0 0 0 0 0 0 0 0 0 0 0 0 0 0 0 0 0 0 0 0 0 0 0 0
Wind_Speed
3 4 2 3 3 1 3 6 6 6 6 7 7 8 8 8 8 8 8 7 7 7 6 6 6 5 4 4 4 5 5 4 3 2 2 2 1 1 1 1 1 1 2 2
2 3 3 3 2 1 2 3 5 5 3 4 6 6 7 8 8 8 8 8 7 7 8 8 7 6 5 4 5 5 5 4 3 2 2 2 1 1 1 1 2 2 2 1
2 4 4 3 3 2 3 3 5 5 5 7 8 8 9 9 9 9 9 8 8 7 7 8 7 7 6 5 5 5 5 4 3 3 2 1 1 2 1 1 1 2 1 1
0 3 1 4 2 4 6 2 2 4 7 10 9 7 6 6 8 8 8 8 7 6 6 6 6 6 6 6 5 5 4 4 3 3 3 2 1 1 0 0 0 0 1 1
3 1 2 3 2 1 5 1 1 7 9 7 8 6 2 3 6 8 8 7 7 6 6 6 6 6 6 5 5 5 4 4 3 3 2 2 1 1 1 0 0 1 1 1
3 2 3 5 3 1 7 1 1 6 9 9 8 4 4 5 6 7 7 7 7 6 6 6 5 6 6 5 5 5 4 4 3 3 3 2 2 1 1 1 1 1 2 2
3 2 5 5 3 1 3 5 4 6 7 7 4 5 5 7 6 7 7 7 7 7 6 6 6 6 6 5 5 4 4 3 3 3 3 3 2 1 1 1 1 1 2 3
4 3 7 3 1 3 6 4 6 6 6 6 6 6 7 8 8 8 7 7 7 6 5 4 5 6 6 5 4 4 3 3 2 2 2 2 2 1 1 1 0 2 2 3
6 7 5 1 4 3 6 7 6 6 6 9 8 7 7 8 8 7 7 6 5 6 5 3 4 6 6 4 4 4 3 3 2 1 1 1 2 1 1 0 1 2 2 2
2 1 1 2 3 3 6 7 7 8 9 8 9 9 8 8 7 7 5 6 5 6 6 4 4 4 5 4 4 4 4 2 2 1 1 1 1 1 1 2 1 2 2 2
2 2 3 1 4 6 7 9 9 8 8 9 10 9 8 7 7 6 5 4 5 6 6 5 4 4 4 4 4 4 3 2 1 1 1 1 1 2 3 4 5 4 4 3
6 8 6 5 4 8 10 9 10 9 8 8 9 9 8 7 6 6 6 5 5 5 5 5 5 4 4 4 5 4 3 2 2 1 1 1 1 2 4 5 7 8 8 6
6 6 6 6 6 8 9 9 9 9 10 9 7 7 8 6 5 5 5 6 6 6 6 5 5 4 4 4 4 4 4 3 2 2 2 2 2 2 3 5 6 7 8 9
8 8 6 5 7 8 10 10 9 9 8 8 7 7 7 6 6 6 6 6 6 5 5 5 5 4 4 4 4 4 3 3 3 3 3 3 3 3 3 3 4 5 6 8
6 7 8 7 8 9 10 10 10 8 8 7 7 7 8 7 7 6 6 6 5 5 5 5 5 5 4 4 4 4 3 3 3 3 3 3 3 3 3 4 4 4 4 5
7 8 9 10 11 10 10 11 10 9 8 7 7 7 8 7 7 6 6 6 6 6 6 5 5 5 4 4 4 3 3 5 4 3 3 3 3 3 4 4 4 4 4 5
11 9 10 10 10 10 9 9 10 9 9 8 8 8 8 7 6 5 5 6 6 6 6 6 6 5 5 5 4 3 3 4 6 4 3 4 4 4 5 4 5 5 6 6
10 11 11 12 11 10 9 9 9 9 9 9 9 8 8 7 7 6 5 5 4 4 5 6 5 5 4 4 4 3 3 3 3 4 4 4 5 5 5 5 5 6 6 6
9 10 10 10 10 10 9 9 9 8 8 9 9 8 7 7 6 5 5 5 5 5 5 5 6 5 4 4 4 3 3 4 4 4 4 5 5 5 4 5 5 5 5 5
9 10 10 9 10 9 9 8 8 8 8 8 8 7 6 6 6 6 5 5 5 5 5 4 4 4 4 4 4 3 3 4 4 4 4 4 4 5 5 5 6 6 5 5
10 10 11 10 9 9 9 9 9 9 8 8 8 8 7 6 6 6 5 4 5 5 5 6 4 4 3 4 4 3 3 4 4 4 4 5 5 5 5 5 5 5 6 6
9 9 10 10 9 8 7 8 9 9 8 7 7 7 6 5 5 5 5 5 5 5 4 4 4 5 5 5 3 3 4 4 4 4 4 4 5 5 5 6 5 6 6 6
8 8 9 10 10 8 7 7 8 8 8 8 8 7 7 6 5 5 4 4 4 6 5 4 6 8 8 4 3 4 4 5 5 5 5 5 5 5 6 6 6 6 6 6
8 8 9 9 9 9 8 6 7 6 7 7 7 7 7 5 4 4 4 6 8 7 5 6 9 9 8 4 4 4 5 5 5 5 5 5 5 5 6 6 6 6 6 7
9 9 9 9 8 7 7 6 6 5 5 4 5 6 6 5 5 5 4 5 8 7 5 7 9 9 6 4 4 5 5 5 5 5 5 5 5 6 6 6 6 6 6 5
8 7 7 7 6 6 5 5 4 4 4 4 3 3 3 3 4 4 4 5 6 7 5 4 4 5 4 4 5 5 5 5 6 5 5 5 6 6 5 6 7 5 5 5
7 6 5 4 4 5 5 5 5 5 5 5 4 3 4 3 3 4 4 3 3 4 4 3 4 4 4 5 5 5 5 4 5 5 5 5 5 5 5 6 4 4 4 4
Wind_Direction
230 253 256 273 291 240 156 170 178 196 189 199 186 166 155 148 146 145 143 143 150 151 150 147 141 144 147 146 144 145 143 144 161 160 141 124 113 93 49 32 40 39 45 25
320 315 334 341 339 62 116 134 145 147 194 195 160 140 143 148 152 154 156 157 158 157 154 152 150 152 148 150 156 150 150 157 156 144 138 130 125 97 52 33 28 43 43 29
286 314 5 336 311 112 113 134 151 180 190 150 143 156 165 166 166 168 165 162 162 169 164 160 161 159 157 160 155 149 152 155 149 148 139 131 111 93 68 25 41 48 21 23
130 27 289 263 313 119 122 119 136 140 149 156 157 157 158 161 164 164 164 160 159 166 159 156 154 151 149 150 149 149 153 155 151 148 142 135 113 106 343 351 30 338 314 312
121 141 267 299 313 149 125 82 144 136 138 139 129 105 105 175 163 164 162 159 161 158 149 146 149 150 144 151 151 151 156 159 156 151 156 159 163 225 226 158 289 269 280 285
129 150 224 241 272 115 99 62 248 142 147 149 139 145 205 179 152 143 142 144 144 141 135 141 149 144 142 150 151 161 168 168 167 163 168 180 200 216 223 195 238 261 284 283
154 188 257 256 269 71 126 220 189 150 150 148 159 182 161 140 135 132 132 136 136 136 140 150 147 140 144 148 163 175 168 163 167 173 183 195 204 217 210 225 289 301 297 299
150 178 247 259 117 157 191 164 137 134 142 131 123 117 122 127 129 128 126 128 133 138 145 153 148 141 142 159 170 160 155 158 173 189 205 184 180 234 233 190 272 292 303 310
175 206 231 179 153 171 148 132 135 136 141 132 123 125 126 130 131 132 135 137 138 143 145 152 155 146 151 171 162 150 146 155 178 197 220 196 179 207 246 255 234 269 274 283
107 221 172 123 111 119 129 129 133 135 136 133 132 136 135 138 137 137 141 142 141 142 148 157 161 155 162 167 157 149 155 175 192 181 264 284 236 209 213 231 236 257 262 262
125 170 95 71 132 129 115 117 120 122 125 133 132 135 138 141 144 146 146 144 143 149 155 163 161 161 166 164 154 153 170 189 199 208 218 267 273 243 231 235 220 217 232 224
196 197 166 182 163 131 126 131 135 127 123 129 136 140 137 142 147 148 150 148 148 153 158 164 164 168 176 173 164 162 175 197 211 227 242 240 260 304 296 264 265 247 235 226
168 161 150 148 140 129 130 135 134 132 137 138 137 137 138 142 148 149 151 153 158 164 166 167 167 172 181 178 170 172 188 207 217 227 237 241 238 242 287 305 296 275 259 251
133 120 118 137 141 134 130 130 127 126 131 137 139 137 138 139 145 153 162 167 163 160 162 167 170 184 192 181 177 186 199 216 220 228 233 238 239 241 242 256 284 295 281 259
145 140 146 139 128 128 129 128 128 132 134 134 139 142 146 149 157 166 169 166 159 161 171 176 184 201 200 185 186 197 206 222 229 235 237 241 242 245 250 253 257 268 286 286
138 128 132 136 138 138 138 140 144 150 149 147 150 155 158 158 161 163 164 164 164 178 187 186 197 209 202 192 196 210 227 238 235 237 247 250 247 246 252 256 259 260 262 264
139 146 145 146 150 151 152 153 153 156 156 158 161 160 155 151 154 163 173 177 179 187 189 191 204 210 202 198 201 217 228 243 245 246 245 247 249 247 247 249 252 256 258 257
156 159 157 156 156 154 153 151 152 155 161 163 157 152 154 159 169 178 181 174 173 190 202 201 204 205 204 205 207 218 229 240 241 243 248 251 253 250 247 247 250 255 263 270
147 152 152 154 153 151 151 153 153 154 154 151 150 155 162 168 171 173 166 162 174 200 221 210 201 198 209 218 214 220 231 244 251 253 251 258 262 259 254 251 253 256 258 259
148 151 149 149 147 145 148 149 146 145 150 149 149 152 160 171 171 166 162 179 201 206 205 196 191 201 215 227 224 229 238 245 250 257 260 259 259 261 260 257 255 255 254 252
149 149 147 145 145 147 149 148 146 150 153 153 155 163 170 175 171 165 166 200 229 207 194 194 197 211 223 235 230 237 242 250 252 251 254 256 258 260 261 260 260 256 253 251
148 146 148 147 146 147 150 149 149 150 151 156 161 161 162 169 175 175 188 203 212 198 189 198 209 220 230 232 232 243 249 255 258 255 253 254 255 257 261 261 260 259 255 249
143 144 144 146 148 147 143 145 149 152 157 162 167 169 174 180 177 176 206 220 203 201 197 210 219 226 231 232 243 249 254 260 261 256 254 254 254 253 256 261 262 262 259 255
137 138 140 139 134 135 143 155 154 157 162 168 173 174 170 173 192 205 201 200 202 203 210 222 224 227 226 231 241 247 253 259 259 257 258 260 261 259 258 260 262 262 262 261
133 132 133 133 137 149 157 155 149 154 158 167 178 181 180 179 187 202 198 200 205 205 221 229 228 228 223 233 239 247 253 259 261 260 261 265 268 268 265 262 261 261 260 258
134 138 146 151 152 154 155 154 156 167 166 168 185 191 188 187 189 189 192 203 203 204 214 224 222 221 225 233 241 249 255 267 271 268 268 271 276 275 274 273 270 267 266 265
131 132 134 135 147 154 154 157 163 171 173 172 183 196 191 184 185 190 193 197 197 206 217 219 217 216 223 235 244 251 257 263 267 269 271 272 275 276 278 278 278 276 275 277